Weather in Snegurovka

Russia / Primorsky Krai     44°04′58″N   132°35′03″E
temp.,
°C
wind,
m/s
gust,
m/s
humid.,
%
clouds,
%
prec.,
mm/h
press.,
hPa
HPBL,
m
24 january, sun
sun2401:00−12se22720 0.0 102921
04:00−12se23800 0.0 102821
07:00−12sse22830 0.0 102721
10:00−9sse11870 0.0 102723
13:00−3wsw23870 0.0 1027300
16:00−2nnw119121 0.0 1026230
19:00−9n119647 0.0 102821
22:00−11ne119830 0.0 102921
25 january, mon
mon2501:00−12ne129449 0.0 103121
04:00−13ne22870 0.0 103120
07:00−14ne22900 0.0 103220
10:00−12ne12920 0.0 103360
13:00−7nne23847 0.0 1031313
16:00−6nnw349016 0.0 1028205
19:00−14nnw019625 0.0 102920
22:00−14sse009844 0.0 102920
26 january, tue
tue2601:00−12n009697 0.0 102721
04:00−6e118999 0.0 102425
07:00−5e1190100 0.1 102228
10:00−3se2491100 0.1 1020140
13:00+1s41299100 0.0 1017648
16:000ssw38100100 0.3 1015470
19:00−1ssw2498100 1.8 1015143
22:00−4w4980100 1.8 1016188
27 january, wed
wed2701:00−10w127448 0.0 101821
04:00−13wnw129236 0.1 101926
07:00−16sw228418 0.0 101920
10:00−14w38868 0.0 1022262
13:00−11wsw58660 0.0 10221181
16:00−10wnw587033 0.0 10221677
19:00−15w117789 0.0 102420
22:00−16s118391 0.0 102520
28 january, thu
thu2801:00−18s118447 0.0 102620
04:00−18ese118160 0.0 102520
07:00−18ese2281100 0.0 102420
10:00−16e228387 0.0 102371
13:00−11ene3569100 0.0 1019484
16:00−11ne4574100 0.0 1015455
19:00−13n4891100 0.1 1014373
22:00−14n5895100 1.4 1012444